Cut Bank, MT

2:25 PM MST on November 17, 2019 (GMT -0700)
Cut Bank Municipal

Weather History for KCTB - August, 2019

Change the Weather History Date:

Monday, August 12, 2019

  Actual Average Record
Temperature  
Mean Temperature 60 °F 65 °F  
Max Temperature 70 °F 81 °F 96 °F (1940)
Min Temperature 50 °F 49 °F 35 °F (1966)
Degree Days  
Heating Degree Days 5 3  
Month to date heating degree days 18 27  
Since 1 June heating degree days 333 346  
Since 1 July heating degree days 111 113  
Cooling Degree Days 0 3  
Month to date cooling degree days 42 36  
Year to date cooling degree days 95 125  
Since 1 June cooling degree days 95 123  
Growing Degree Days 10 (Base 50)    
Moisture  
Dew Point 49 °F    
Average Humidity 72    
Maximum Humidity 89    
Minimum Humidity 45    
Precipitation  
Precipitation 0.20 in 0.04 in 1.15 in (1999)
Month to date precipitation 0.90 0.44  
Year to date precipitation 8.31 7.91  
Snow  
Snow - - - ()
Snow Depth 0.00 in    
Sea Level Pressure  
Sea Level Pressure 30.03 in    
Wind  
Wind Speed 9 mph ()    
Max Wind Speed 22 mph    
Max Gust Speed 28 mph    
Visibility 8.6 miles    
Events Rain    
T = Trace of Precipitation, MM = Missing Value Source: Averaged Metar Reports

Daily Weather History Graph

Daily Weather History Graph

Search for Another Location

Airport or City:

Astronomy

Aug. 12, 2019 Rise Set
Actual Time 6:18 AM MDT 8:49 PM MDT
Civil Twilight 5:43 AM MDT 9:24 PM MDT
Nautical Twilight 4:58 AM MDT 10:09 PM MDT
Astronomical Twilight 4:06 AM MDT 11:00 PM MDT
Moon 7:34 PM MDT (8/12) 3:18 AM MDT (8/12)
Length of Visible Light 15h 41m
Length of Day
14h 31m
Waxing Gibbous, 93% of the Moon is Illuminated
Aug 12
Waxing Gibbous
Aug 15
Full
Aug 23
Last Quarter
Aug 30
New
Sep 5
First Quarter

Hourly Weather History & Observations

Time (MDT) Temp. Dew Point Humidity Pressure Visibility Wind Dir Wind Speed Gust Speed Precip Events Conditions
12:56 AM 55.9 °F 48.0 °F 75% 29.97 in 10.0 mi West 13.8 mph - N/A   Scattered Clouds
1:56 AM 55.9 °F 46.9 °F 72% 29.96 in 10.0 mi West 15.0 mph - N/A   Clear
2:56 AM 55.9 °F 46.9 °F 72% 29.94 in 10.0 mi West 16.1 mph - N/A   Scattered Clouds
3:56 AM 54.0 °F 46.0 °F 75% 29.94 in 10.0 mi WNW 8.1 mph - N/A   Scattered Clouds
4:56 AM 53.1 °F 46.9 °F 80% 29.95 in 10.0 mi NW 9.2 mph - N/A   Overcast
5:56 AM 50.0 °F 45.0 °F 83% 29.96 in 10.0 mi WNW 10.4 mph - N/A   Partly Cloudy
6:56 AM 52.0 °F 45.0 °F 77% 29.98 in 10.0 mi WNW 11.5 mph - N/A   Mostly Cloudy
7:56 AM 55.9 °F 46.0 °F 69% 29.99 in 10.0 mi NW 5.8 mph - N/A   Partly Cloudy
8:56 AM 60.1 °F 46.0 °F 60% 30.00 in 10.0 mi WNW 11.5 mph - N/A   Partly Cloudy
9:56 AM 62.1 °F 48.0 °F 60% 30.01 in 10.0 mi Variable 4.6 mph - N/A   Overcast
10:56 AM 64.0 °F 48.0 °F 56% 30.01 in 10.0 mi Calm Calm - N/A   Mostly Cloudy
11:56 AM 66.9 °F 45.0 °F 45% 30.01 in 10.0 mi NW 10.4 mph - N/A   Overcast
12:56 PM 66.0 °F 45.0 °F 47% 30.02 in 10.0 mi West 11.5 mph - N/A   Overcast
1:56 PM 66.0 °F 45.0 °F 47% 30.01 in 10.0 mi West 12.7 mph - N/A   Overcast
2:56 PM 64.9 °F 48.0 °F 54% 30.02 in 10.0 mi North 18.4 mph 23.0 mph N/A   Overcast
3:11 PM 59.0 °F 51.1 °F 75% 30.08 in 4.0 mi North 17.3 mph - 0.03 in Rain Heavy Rain
3:25 PM 57.9 °F 52.0 °F 81% 30.09 in 1.8 mi North 9.2 mph - 0.11 in Rain Heavy Rain
3:36 PM 57.9 °F 51.1 °F 78% 30.08 in 3.0 mi Variable 4.6 mph - 0.14 in Rain Light Rain
3:56 PM 61.0 °F 51.1 °F 70% 30.05 in 7.0 mi Variable 3.5 mph - 0.14 in Rain Light Rain
4:20 PM 57.9 °F 53.1 °F 84% 30.09 in 2.5 mi Calm Calm - 0.03 in Rain Light Rain
4:27 PM 57.9 °F 53.1 °F 84% 30.09 in 7.0 mi NNE 3.5 mph - 0.04 in Rain Light Rain
4:56 PM 59.0 °F 53.1 °F 81% 30.06 in 4.0 mi NNE 10.4 mph - 0.05 in Rain Light Rain
5:56 PM 62.1 °F 54.0 °F 75% 30.07 in 10.0 mi North 6.9 mph - 0.01 in   Overcast
6:56 PM 61.0 °F 53.1 °F 75% 30.08 in 10.0 mi Calm Calm - N/A   Overcast
7:56 PM 60.1 °F 53.1 °F 78% 30.08 in 10.0 mi Calm Calm - N/A   Overcast
8:56 PM 61.0 °F 55.0 °F 81% 30.08 in 10.0 mi Calm Calm - N/A   Overcast
9:56 PM 55.9 °F 48.0 °F 75% 30.11 in 10.0 mi NW 5.8 mph - N/A   Partly Cloudy
10:56 PM 53.1 °F 48.0 °F 83% 30.11 in 10.0 mi WNW 8.1 mph - N/A   Partly Cloudy
11:56 PM 52.0 °F 48.9 °F 89% 30.12 in 10.0 mi NW 4.6 mph - N/A   Clear